Date String (YYYY-MM-DD hh:mm:ss) UTC,Instrument flags,Ambient pressure (hPa),Sample flow (lpm),Bypass flow (lpm),Sample temperature (°C),Ambient temperature (°C),ASC tube jacket temperature (°C),LED temperature (°C),Box temperature (°C),Sample RH (%),Span deviation,Mass concentration (μg/m³),Mass concentration (μg/m³),Mass concentration (μg/m³)
DateTimeUTC,F1_M11,P_M11,Q1_M11,Q2_M11,T1_M11,T2_M11,T3_M11,T4_M11,T5_M11,U1_M11,ZSPAN_M11,X0_M11,X2_M11,X1_M11
2022-01-30 22:00:00,,0823.3,5.01,0.00,28.6,27.7,00.0,37.5,30.4,05.6,0000.0,0007.70,0004.61,0004.38
2022-01-30 22:01:00,,0823.3,4.99,0.00,28.6,27.7,00.0,37.5,30.4,05.5,0000.0,0007.76,0004.66,0004.43
2022-01-30 22:02:00,,0823.3,5.00,0.00,28.6,27.7,00.0,37.5,30.4,05.6,0000.0,0007.87,0004.72,0004.48
2022-01-30 22:03:00,,0823.3,4.98,0.00,28.6,27.7,00.0,37.5,30.3,06.0,0000.0,0007.96,0004.77,0004.53
2022-01-30 22:04:00,,0823.3,5.01,0.00,28.5,27.6,00.0,37.5,30.3,06.2,0000.0,0008.12,0004.85,0004.59
2022-01-30 22:05:00,,0823.3,4.99,0.00,28.5,27.6,00.0,37.5,30.3,06.2,0000.0,0008.32,0004.94,0004.65
2022-01-30 22:06:00,,0823.3,5.01,0.00,28.5,27.6,00.0,37.5,30.3,06.1,0000.0,0008.36,0005.00,0004.71
2022-01-30 22:07:00,,0823.3,4.99,0.00,28.5,27.6,00.0,37.5,30.3,06.2,0000.0,0008.43,0005.06,0004.77
2022-01-30 22:08:00,,0823.4,5.00,0.00,28.5,27.6,00.0,37.5,30.3,06.2,0000.0,0008.45,0005.11,0004.82
2022-01-30 22:09:00,,0823.3,4.98,0.00,28.5,27.7,00.0,37.5,30.3,06.3,0000.0,0008.51,0005.19,0004.88
2022-01-30 22:10:00,,0823.3,5.01,0.00,28.5,27.7,00.0,37.5,30.3,06.4,0000.0,0008.73,0005.27,0004.95
2022-01-30 22:11:00,,0823.3,5.02,0.00,28.5,27.7,00.0,37.5,30.3,06.5,0000.0,0009.58,0005.34,0005.02
2022-01-30 22:12:00,,0823.3,4.99,0.00,28.5,27.7,00.0,37.4,30.3,06.4,0000.0,0009.82,0005.39,0005.06
2022-01-30 22:13:00,,0823.3,5.01,0.00,28.5,27.7,00.0,37.4,30.3,06.4,0000.0,0009.99,0005.45,0005.10
2022-01-30 22:14:00,,0823.3,5.00,0.00,28.5,27.7,00.0,37.5,30.4,06.4,0000.0,0010.00,0005.48,0005.14
2022-01-30 22:15:00,,0823.4,4.99,0.00,28.5,27.7,00.0,37.5,30.4,06.4,0000.0,0009.97,0005.50,0005.16
2022-01-30 22:16:00,,0823.3,5.00,0.00,28.5,27.7,00.0,37.5,30.4,06.0,0000.0,0009.83,0005.48,0005.18
2022-01-30 22:17:00,,0823.4,5.00,0.00,28.6,27.8,00.0,37.5,30.4,06.3,0000.0,0009.82,0005.49,0005.20
2022-01-30 22:18:00,,0823.3,5.01,0.00,28.6,27.8,00.0,37.5,30.4,06.2,0000.0,0009.82,0005.50,0005.22
2022-01-30 22:19:00,,0823.2,5.00,0.00,28.6,27.9,00.0,37.5,30.4,06.2,0000.0,0009.80,0005.53,0005.24
2022-01-30 22:20:00,,0823.2,4.99,0.00,28.6,27.9,00.0,37.5,30.4,06.2,0000.0,0009.74,0005.51,0005.25
2022-01-30 22:21:00,,0823.3,4.99,0.00,28.6,27.9,00.0,37.5,30.4,06.2,0000.0,0009.71,0005.51,0005.25
2022-01-30 22:22:00,,0823.2,5.02,0.00,28.6,27.9,00.0,37.5,30.4,06.2,0000.0,0009.11,0005.53,0005.25
2022-01-30 22:23:00,,0823.3,4.99,0.00,28.6,27.9,00.0,37.5,30.5,06.5,0000.0,0008.82,0005.54,0005.26
2022-01-30 22:24:00,,0823.3,5.00,0.00,28.6,27.9,00.0,37.5,30.5,06.4,0000.0,0008.71,0005.56,0005.28
2022-01-30 22:25:00,,0823.4,5.00,0.00,28.7,27.9,00.0,37.5,30.5,06.3,0000.0,0008.99,0005.60,0005.30
2022-01-30 22:26:00,,0823.4,5.00,0.00,28.7,27.9,00.0,37.5,30.5,06.3,0000.0,0009.20,0005.59,0005.30
2022-01-30 22:27:00,,0823.4,5.01,0.00,28.7,27.9,00.0,37.5,30.5,06.2,0000.0,0009.22,0005.61,0005.32
2022-01-30 22:28:00,,0823.4,4.99,0.00,28.7,27.9,00.0,37.5,30.5,06.2,0000.0,0009.24,0005.60,0005.32
2022-01-30 22:29:00,,0823.4,5.01,0.00,28.7,28.0,00.0,37.6,30.5,06.1,0000.0,0009.25,0005.61,0005.32
2022-01-30 22:30:00,,0823.4,5.00,0.00,28.7,28.0,00.0,37.6,30.5,06.2,0000.0,0009.31,0005.62,0005.34
2022-01-30 22:31:00,,0823.4,4.99,0.00,28.7,28.0,00.0,37.6,30.5,06.3,0000.0,0009.30,0005.63,0005.36
2022-01-30 22:32:00,,0823.4,5.01,0.00,28.7,28.0,00.0,37.6,30.5,06.1,0000.0,0009.21,0005.64,0005.37
2022-01-30 22:33:00,,0823.4,4.98,0.00,28.7,28.0,00.0,37.6,30.5,06.0,0000.0,0009.41,0005.61,0005.38
2022-01-30 22:34:00,,0823.3,5.01,0.00,28.7,28.0,00.0,37.6,30.5,05.9,0000.0,0009.52,0005.60,0005.35
2022-01-30 22:35:00,,0823.3,4.99,0.00,28.7,28.0,00.0,37.6,30.5,05.8,0000.0,0009.52,0005.57,0005.34
2022-01-30 22:36:00,,0823.3,5.02,0.00,28.7,28.0,00.0,37.6,30.5,05.8,0000.0,0009.60,0005.54,0005.33
2022-01-30 22:37:00,,0823.4,4.98,0.00,28.7,28.0,00.0,37.6,30.5,05.8,0000.0,0009.33,0005.53,0005.32
2022-01-30 22:38:00,,0823.4,5.01,0.00,28.7,28.0,00.0,37.6,30.5,05.8,0000.0,0009.50,0005.53,0005.32
2022-01-30 22:39:00,,0823.4,5.00,0.00,28.7,27.9,00.0,37.6,30.5,05.8,0000.0,0009.49,0005.53,0005.32
2022-01-30 22:40:00,,0823.4,4.99,0.00,28.7,27.9,00.0,37.6,30.5,05.8,0000.0,0009.55,0005.56,0005.34
2022-01-30 22:41:00,,0823.4,5.01,0.00,28.7,28.0,00.0,37.6,30.5,05.8,0000.0,0009.51,0005.55,0005.33
2022-01-30 22:42:00,,0823.4,5.01,0.00,28.7,28.0,00.0,37.6,30.5,05.9,0000.0,0009.53,0005.55,0005.32
2022-01-30 22:43:00,,0823.4,4.99,0.00,28.7,28.0,00.0,37.6,30.5,05.8,0000.0,0009.51,0005.55,0005.31
2022-01-30 22:44:00,,0823.4,4.99,0.00,28.7,28.0,00.0,37.6,30.5,05.7,0000.0,0009.29,0005.56,0005.31
2022-01-30 22:45:00,,0823.4,5.00,0.00,28.8,28.0,00.0,37.6,30.6,05.6,0000.0,0009.16,0005.57,0005.33
2022-01-30 22:46:00,,0823.3,4.99,0.00,28.8,28.0,00.0,37.6,30.6,05.5,0000.0,0009.13,0005.58,0005.33
2022-01-30 22:47:00,,0823.4,5.00,0.00,28.8,28.0,00.0,37.6,30.6,05.5,0000.0,0008.80,0005.55,0005.32
2022-01-30 22:48:00,,0823.3,4.99,0.00,28.8,28.1,00.0,37.7,30.6,05.5,0000.0,0008.75,0005.55,0005.33
2022-01-30 22:49:00,,0823.3,5.00,0.00,28.8,28.1,00.0,37.7,30.6,05.5,0000.0,0008.55,0005.55,0005.33
2022-01-30 22:50:00,,0823.3,5.01,0.00,28.8,28.0,00.0,37.7,30.6,05.5,0000.0,0008.52,0005.54,0005.32
2022-01-30 22:51:00,,0823.3,4.98,0.00,28.8,28.0,00.0,37.7,30.6,05.6,0000.0,0008.49,0005.54,0005.33
2022-01-30 22:52:00,,0823.4,5.02,0.00,28.8,28.0,00.0,37.7,30.6,05.7,0000.0,0008.56,0005.59,0005.36
2022-01-30 22:53:00,,0823.4,5.00,0.00,28.8,28.1,00.0,37.7,30.6,05.8,0000.0,0008.55,0005.60,0005.39
2022-01-30 22:54:00,,0823.4,5.00,0.00,28.8,28.1,00.0,37.7,30.6,05.8,0000.0,0008.62,0005.63,0005.43
2022-01-30 22:55:00,,0823.3,4.98,0.00,28.8,28.1,00.0,37.7,30.7,05.7,0000.0,0008.78,0005.68,0005.48
2022-01-30 22:56:00,,0823.3,5.00,0.00,28.8,28.1,00.0,37.7,30.7,05.7,0000.0,0009.01,0005.74,0005.52
2022-01-30 22:57:00,,0823.3,4.99,0.00,28.8,28.1,00.0,37.7,30.7,05.6,0000.0,0009.14,0005.79,0005.56
2022-01-30 22:58:00,,0823.2,4.99,0.00,28.8,28.1,00.0,37.7,30.7,05.6,0000.0,0009.31,0005.86,0005.62
2022-01-30 22:59:00,,0823.3,4.99,0.00,28.9,28.1,00.0,37.7,30.7,05.6,0000.0,0009.40,0005.92,0005.67
